Location: Pinon Hills
(34.4429°N, 117.6403°W)
Time: 15:28:05
(UTC-07:00)

Daily predictions for brighter satellites

Satellite Brightness Start Highest point End
(mag) Time Altitude Azimuth Time Altitude Azimuth Time Altitude Azimuth
Atlas Centaur 2 3.5 18:51:21 10° W 18:59:47 63° S 19:07:46 10° ESE
Cosmos 2237 Rocket 3.3 18:58:54 10° SW 19:04:24 51° WNW 19:09:58 10° N
ATLAS CENTAUR R/B 1.6 19:01:23 10° NNW 19:05:23 46° ENE 19:09:04 10° SE
Resurs 01 Rocket 2.8 19:05:28 10° ESE 19:09:02 24° ENE 19:12:35 10° NNE
Okean 3 Rocket 3.7 19:06:47 10° N 19:11:15 55° E 19:15:41 10° SSE
ATLAS 5 CENTAUR R/B 2.1 19:07:31 10° S 19:11:57 44° ESE 19:16:42 10° NE
Cosmos 1624 Rocket 4.0 19:09:30 10° N 19:14:40 60° ENE 19:19:46 10° SSE
Meteor 1-29 4.0 19:17:44 10° NE 19:20:43 26° E 19:23:41 10° SSE
ISS -1.3 19:20:14 10° SSE 19:21:40 12° SE 19:22:15 12° ESE
Cosmos 192 4.3 19:17:38 10° S 19:22:31 63° ESE 19:27:26 10° NNE
Milstar 3 4.4 19:14:05 10° WSW 19:23:34 67° S 19:40:01 15° E
SL-16 R/B 2.3 19:18:05 10° SSW 19:23:46 85° WNW 19:29:30 10° NNE
Cosmos 1953 3.1 19:21:10 10° SSE 19:24:40 30° E 19:28:10 10° NNE
BREEZE-M TANK 3.2 19:15:41 10° WNW 19:26:11 85° NNE 19:29:14 13° ESE
USA 215 3.3 19:23:20 10° NE 19:29:54 86° NW 19:36:26 10° SW
ATLAS CENTAUR R/B 3.3 19:26:47 10° SW 19:30:59 82° NW 19:44:00 10° NE
Spot 1 4.4 19:26:55 10° SSE 19:31:37 53° ENE 19:36:03 10° N
Helios 1A 3.5 19:28:33 10° SE 19:32:24 36° ENE 19:36:15 10° N
Cosmos 1805 3.6 19:31:27 10° SSE 19:35:08 40° E 19:38:50 10° NNE
OAO 1 Rocket 4.5 19:30:24 10° WSW 19:35:46 81° SSE 19:39:52 18° E
BREEZE-M DEB (TANK) 4.2 19:32:24 10° NW 19:36:15 80° SW 19:50:15 10° SE
H-2A R/B 4.3 19:36:27 17° ENE 19:36:45 17° ENE 19:39:20 10° NNE
Cosmos 1544 4.1 19:34:04 10° SSE 19:37:13 26° E 19:40:23 10° NNE
Cosmos 1072 Rocket 4.4 19:31:31 10° S 19:37:37 86° E 19:43:45 10° N
CZ-4B DEB 4.3 19:39:32 19° ENE 19:39:32 19° ENE 19:41:49 10° NNE
Cosmos 1378 3.0 19:36:43 10° N 19:40:27 87° E 19:44:10 10° S
SeaSat 1 3.3 19:37:51 10° NE 19:41:57 26° ESE 19:46:01 10° SSE
Meteor 1-28 Rocket 4.0 19:39:42 10° N 19:43:21 53° WNW 19:46:57 10° SSW
METEOR-M 4.1 19:38:04 10° SSE 19:43:23 70° ENE 19:48:42 10° N
Cosmos 1452 Rocket 3.9 19:39:02 10° N 19:44:00 41° ENE 19:47:54 15° SE
ALOS 2.9 19:42:51 16° SE 19:45:56 33° ENE 19:50:07 10° N
SEDSat Delta rocket 4.1 19:41:13 10° WSW 19:47:51 68° S 19:52:20 22° E
OAO 3 Rocket 3.1 19:43:32 10° W 19:48:18 85° N 19:51:11 24° E
Cosmos 1513 Rocket 4.5 19:45:42 10° S 19:52:03 84° E 19:58:30 10° N
FREGAT/IRIS 3.4 19:49:10 10° S 19:52:12 55° W 19:55:15 10° NNW
Cosmos 2278 Rocket 3.9 19:47:14 10° NW 19:52:19 35° WSW 19:57:22 10° SSW
FENGYUN 3A 4.0 19:48:13 14° SE 19:52:28 41° ENE 19:57:29 10° N
SJ-6B 4.0 19:52:28 10° S 19:56:13 45° W 20:00:05 10° NNW
Cosmos 724 4.2 19:50:27 10° SSW 19:56:19 80° ESE 20:02:22 10° NNE
Cosmos 468 4.4 19:51:37 10° S 19:56:49 67° ESE 20:02:01 10° NNE
Meteor 2-12 Rocket 4.4 19:51:10 10° S 19:57:16 70° E 20:03:24 10° NNE
Cosmos 2297 3.9 19:51:52 10° NNW 19:57:31 71° WSW 20:03:05 10° S
Cosmos 1766 Rocket 3.4 19:58:49 10° N 20:03:13 88° E 20:07:32 10° S
Cosmos 1758 3.5 20:02:08 10° SSW 20:06:11 73° W 20:10:17 10° N
Cosmos 1943 3.8 20:03:02 10° SSE 20:14:49 - NE 20:07:18 31° ESE
Cosmos 1603 3.6 20:05:15 10° SSW 20:10:58 88° ESE 20:16:46 10° NNE
Cosmos 2369 Rocket 3.7 20:07:08 10° NNE 20:10:43 20° NE 20:10:43 20° NE
Cosmos 2034 Rocket 4.2 20:05:54 10° SSW 20:12:06 74° W 20:18:26 10° N
GPS 2-04 Rocket1 2.8 20:12:30 10° WSW 20:15:36 48° S 20:15:36 48° S
Cosmos 1269 Rocket 3.9 20:13:06 10° SSW 20:18:23 81° ESE 20:23:40 10° NNE
Spot 2 Rocket 4.1 20:15:11 10° S 20:20:06 55° W 20:25:03 10° NNW
Helios 1B rocket 4.0 20:16:24 10° N 20:20:12 37° WNW 20:23:59 10° SW
Cosmos-2242 3.6 20:16:25 10° SSW 20:20:40 57° W 20:25:00 10° N
Cosmos 1048 Rocket 3.9 20:17:13 10° S 20:22:32 75° ESE 20:27:47 10° NNE
Meteosat 1 Rocket2 4.5 20:19:57 10° SW 20:25:04 28° S 20:25:10 28° SSE
FengYun 1-2 T 4.5 20:20:48 10° S 20:26:17 69° WSW 20:31:46 10° NNW
ASTEX 1 3.2 20:21:22 10° N 20:26:18 85° E 20:31:11 10° S
SL-8 R/B 3.7 20:21:33 10° SW 20:26:19 78° NW 20:27:44 45° NE
Cosmos 1674 4.1 20:24:57 10° N 20:26:55 27° NNE 20:26:55 27° NNE
Cosmos 1842 Rocket 3.4 20:32:03 81° NE 20:32:03 81° NE 20:36:14 10° N
BREEZE-M DEB (TANK) 4.4 20:29:37 10° W 20:32:25 27° SSW 20:36:39 15° SSE
ASTRO E2 3.4 20:30:08 10° W 20:33:29 47° SW 20:33:29 47° SW
Cosmos 1500 Rocket 4.1 20:32:59 10° N 20:36:15 47° NNE 20:36:15 47° NNE
CENTAUR R/B 2.3 20:31:49 10° SSW 20:37:40 68° ESE 20:40:44 32° NE
ATLAS CENTAUR R/B 4.4 20:42:58 10° W 20:43:50 11° WSW 20:44:42 10° WSW
Resurs 01 Rocket 3.7 20:41:40 10° SSW 20:45:21 25° W 20:49:04 10° NW
Atlas Centaur 2 3.8 20:41:37 10° W 20:49:12 37° SSW 20:51:29 31° S
ATLAS 5 CENTAUR R/B 4.3 20:53:17 10° W 20:56:53 20° NW 21:00:40 10° N
ISS -0.2 20:54:40 10° WSW 20:55:00 12° WSW 20:55:00 12° WSW
SeaSat 1 3.9 21:15:01 10° N 21:19:27 34° WNW 21:23:51 10° WSW
BREEZE-M DEB (TANK) 4.3 21:14:30 10° SW 21:30:34 70° SSW 21:30:34 70° SSW
Cosmos 2369 Rocket 4.0 21:50:01 10° NNW 21:52:32 26° NW 21:52:32 26° NW
